Weather Roundup
Issued by NWS Springfield, MO

Home | Current Version | Previous Version | Text Only | Print | Product List | Glossary On
Versions: 1 2 3 4 5 6 7 8 9 10 11 12 13 14 15 16 17 18 19 20 21 22 23 24 25 26 27 28 29 30 31 32 33 34 35 36 37 38 39 40 41 42 43 44 45 46 47 48 49 50
000
NZUS99 KSGF 051559
HRRSGF

HOURLY WEATHER
NATIONAL WEATHER SERVICE SPRINGFIELD MO
1100 AM CDT TUE MAY 05 2015

......SGF CWA......

CITY           SKY/WX    TMP DP  RH WIND       PRES   REMARKS
SPRINGFIELD    MOSUNNY   75  61  61 S12       30.16R
JOPLIN         PTSUNNY   75  62  64 S9        30.13S
WEST PLAINS    CLOUDY    69  59  70 S5        30.23S
ROLLA          SUNNY     77  60  55 S8        30.18S
OSAGE BEACH    SUNNY     81  57  44 S6        30.16S
BRANSON        PTSUNNY   72  61  68 S14       30.19S

......SURROUNDING SGF CWA......

CITY           SKY/WX    TMP DP  RH WIND       PRES   REMARKS
CHANUTE        PTSUNNY   74  60  61 S14       30.10F
PARSONS        PTSUNNY   75  59  57 S12G17    30.11F
COFFEYVILLE    PTSUNNY   75  60  59 S15G21    30.09F
EMPORIA        CLOUDY    72  57  59 S16       30.08S
SILOAM SPRINGS PTSUNNY   73  59  60 S15G21    30.16S
HARRISON AR    MOSUNNY   73  62  68 S14G24    30.19S
NEAR YELLVILLE PTSUNNY   75  63  64 S8        30.17S

......KANSAS AND MISSOURI......

CITY           SKY/WX    TMP DP  RH WIND       PRES   REMARKS
KANSAS CTY INT MOSUNNY   75  63  66 S12       30.12R
DOWNTOWN KC    MOSUNNY   75  61  61 S14       30.11R
COLUMBIA       SUNNY     77  59  53 S13       30.17S
SEDALIA        MOSUNNY   78  58  49 SW12      30.16S
ST JOSEPH      CLOUDY    70  62  76 S7        30.11R
ST LOUIS       MOSUNNY   82  55  39 SW12      30.19F
SPIRIT OF STL  FAIR      79  56  45 SW8G17    30.17F
KIRKSVILLE     MOSUNNY   73  64  73 SE5       30.16S
WICHITA        CLOUDY    72  56  57 S21G28    30.04S
TOPEKA         PTSUNNY   73  60  63 S10       30.10S
OLATHE         SUNNY     74  61  63 S12       30.12R

......TENNESSEE......

CITY           SKY/WX    TMP DP  RH WIND       PRES   REMARKS
MEMPHIS        MOSUNNY   81  58  45 S9        30.24S
NASHVILLE      MOSUNNY   81  55  40 SW3       30.30S

......ARKANSAS.......

CITY           SKY/WX    TMP DP  RH WIND       PRES   REMARKS
FAYETTEVILLE   PTSUNNY   73  64  73 S20G32    30.15S
FT SMITH       PTSUNNY   76  60  57 S9G21     30.12S
LITTLE ROCK    MOSUNNY   80  53  39 SE15G21   30.19S

......OKLAHOMA.......

CITY           SKY/WX    TMP DP  RH WIND       PRES   REMARKS
TULSA          CLOUDY    73  60  63 S14       30.07S
PONCA CITY     PTSUNNY   72  59  63 SE15      30.04F
MCALESTER      PTSUNNY   73  63  70 SE14G23   30.10R
OKLAHOMA CITY  PTSUNNY   70  57  63 SE22G28   30.03S

......IOWA............

CITY           SKY/WX    TMP DP  RH WIND       PRES   REMARKS
DES MOINES     CLOUDY    70  61  73 S10       30.11S
QUAD CITIES    CLOUDY    65  60  84 E10       30.17S HAZE

......ILLINOIS........

CITY           SKY/WX    TMP DP  RH WIND       PRES   REMARKS
QUINCY         SUNNY     74  60  61 SW8       30.16S
CHICAGO        CLOUDY    50  50 100 NE7       30.24R FOG




USA.gov is the U.S. government's official web portal to all federal, state and local government web resources and services.